period_start,C,m1,H,J0,J1,J2,J3,J4,J5,JA,JB,JC,JD,JJ,JK,JN,#
2016-10-21 00:00:17,0.02,0.07,0.00,19.83,25.20,28.80,14.96,48.52,1025.42,2040.99,3523.00,3144.59,3564.11,600.22,607.97,7.78,0000 0000 0000 0000 000000
2016-10-21 00:05:18,0.01,0.07,0.00,19.80,25.20,28.80,14.88,48.12,1025.41,2040.99,3522.85,3144.19,3564.00,600.02,607.86,7.83,0000 0000 0000 0000 000000
2016-10-21 00:10:19,0.01,0.07,0.00,19.78,25.20,28.81,14.91,48.19,1025.41,2041.00,3522.27,3144.03,3564.00,600.28,608.08,7.88,0000 0000 0000 0000 000000
2016-10-21 00:15:21,0.00,0.07,0.00,19.77,25.20,28.78,14.99,48.13,1025.41,2041.00,3522.00,3144.00,3563.90,599.95,607.72,7.93,0000 0000 0000 0000 000000
2016-10-21 00:20:22,0.01,0.07,0.00,19.72,25.20,28.78,14.90,48.19,1025.41,2041.00,3521.95,3143.98,3563.25,599.59,607.49,7.98,0000 0000 0000 0000 000000
2016-10-21 00:25:23,0.03,0.07,0.00,19.75,25.20,28.81,14.84,48.11,1025.41,2041.00,3521.26,3143.55,3563.00,599.87,607.80,8.03,0000 0000 0000 0000 000000
2016-10-21 00:30:24,0.01,0.07,0.00,19.78,25.20,28.82,15.00,48.15,1025.41,2041.00,3521.00,3143.06,3562.95,600.04,607.82,8.08,0000 0000 0000 0000 000000
2016-10-21 00:35:25,0.01,0.07,0.00,19.78,25.20,28.80,14.87,47.87,1025.41,2041.00,3520.98,3143.01,3562.47,600.23,608.02,8.13,0000 0000 0000 0000 000000
2016-10-21 00:40:27,0.01,0.07,0.00,19.77,25.20,28.81,15.00,48.45,1025.41,2041.00,3520.33,3142.98,3562.01,600.15,607.99,8.18,0000 0000 0000 0000 000000
2016-10-21 00:45:28,0.00,0.08,0.00,19.79,25.20,28.78,14.86,48.31,1025.42,2041.00,3520.03,3142.87,3561.97,600.22,608.14,8.23,0000 0000 0000 0000 000000
2016-10-21 00:50:29,0.02,0.08,0.00,19.78,25.20,28.78,14.86,47.98,1025.43,2041.00,3520.00,3142.23,3561.44,599.87,607.67,8.28,0000 0000 0000 0000 000000
2016-10-21 00:55:31,0.00,0.08,0.00,19.79,25.20,28.78,14.87,48.38,1025.42,2041.00,3519.96,3142.04,3561.05,599.72,607.56,8.33,0000 0000 0000 0000 000000
2016-10-21 01:00:32,0.01,0.08,0.00,19.81,25.20,28.78,14.91,48.38,1025.41,2041.00,3519.21,3142.00,3560.99,599.68,607.29,8.38,0000 0000 0000 0000 000000
2016-10-21 01:05:34,0.01,0.08,0.00,19.86,25.21,28.80,14.98,48.45,1025.41,2040.99,3519.00,3141.91,3560.72,599.97,607.70,8.43,0000 0000 0000 0000 000000
2016-10-21 01:10:35,0.02,0.08,0.00,19.88,25.22,28.81,14.89,48.15,1025.41,2040.98,3518.87,3141.23,3560.03,599.49,607.01,8.48,0000 0000 0000 0000 000000
2016-10-21 01:15:36,0.01,0.08,0.00,19.89,25.22,28.80,14.87,48.45,1025.41,2040.99,3518.16,3141.03,3560.00,600.35,607.85,8.53,0000 0000 0000 0000 000000
2016-10-21 01:20:38,0.01,0.08,0.00,19.92,25.22,28.82,14.85,48.36,1025.42,2040.98,3517.99,3140.98,3559.64,599.94,607.46,8.58,0000 0000 0000 0000 000000
2016-10-21 01:25:39,0.01,0.08,0.00,19.96,25.22,28.83,14.92,48.60,1025.41,2040.96,3517.61,3140.89,3559.07,599.89,607.27,8.63,0000 0000 0000 0000 000000
2016-10-21 01:30:40,0.02,0.08,0.00,19.95,25.23,28.83,14.95,48.67,1025.41,2040.96,3517.09,3140.38,3559.00,600.20,607.65,8.68,0000 0000 0000 0000 000000
2016-10-21 01:35:41,0.00,0.08,0.00,19.94,25.24,28.85,14.85,48.76,1025.41,2040.97,3516.99,3140.01,3558.96,599.87,607.29,8.73,0000 0000 0000 0000 000000
2016-10-21 01:40:43,0.01,0.08,0.00,19.94,25.25,28.88,14.99,48.80,1025.41,2040.96,3516.71,3140.00,3558.46,600.02,607.51,8.78,0000 0000 0000 0000 000000
2016-10-21 01:45:44,0.01,0.08,0.00,19.99,25.25,28.86,14.82,48.53,1025.41,2040.92,3516.04,3139.95,3558.01,599.72,607.16,8.83,0000 0000 0000 0000 000000
2016-10-21 01:50:45,0.01,0.09,0.00,20.00,25.25,28.88,14.86,48.68,1025.41,2040.92,3515.99,3139.59,3557.99,600.07,607.56,8.88,0000 0000 0000 0000 000000
2016-10-21 01:55:46,0.03,0.09,0.00,19.99,25.27,28.91,14.96,48.81,1025.41,2040.86,3515.40,3139.03,3557.53,600.52,607.89,8.93,0000 0000 0000 0000 000000
2016-10-21 02:00:48,-0.04,0.09,0.00,20.01,25.27,28.89,14.99,48.92,1025.41,2040.54,3514.99,3138.99,3557.02,600.29,607.67,8.98,0000 0000 0000 0000 000000
2016-10-21 02:05:49,-0.00,0.08,0.00,20.02,25.27,28.89,14.83,48.69,1025.41,2040.25,3514.65,3138.77,3556.95,599.81,607.14,9.03,0000 0000 0000 0000 000000
2016-10-21 02:10:50,0.02,0.09,0.00,20.06,25.28,28.90,14.81,48.64,1025.41,2040.09,3514.03,3138.09,3556.19,599.48,606.72,9.09,0000 0000 0000 0000 000000
2016-10-21 02:15:51,0.01,0.09,0.00,20.08,25.30,28.92,14.86,48.67,1025.41,2040.05,3513.67,3138.00,3556.00,599.96,607.11,9.14,0000 0000 0000 0000 000000
2016-10-21 02:20:52,0.01,0.09,0.00,20.09,25.30,28.93,14.99,48.58,1025.40,2040.01,3513.04,3137.91,3555.77,601.05,608.17,9.19,0000 0000 0000 0000 000000
2016-10-21 02:25:54,0.02,0.09,0.00,20.09,25.30,28.94,14.92,48.52,1025.36,2040.03,3512.99,3137.41,3555.18,600.22,607.34,9.24,0000 0000 0000 0000 000000
2016-10-21 02:30:55,0.01,0.09,0.00,20.11,25.32,28.96,14.81,48.23,1025.36,2040.01,3512.47,3137.03,3555.01,599.56,606.64,9.29,0000 0000 0000 0000 000000
2016-10-21 02:35:57,0.00,0.09,0.00,20.13,25.32,28.97,15.06,48.51,1025.28,2040.01,3512.03,3137.00,3554.98,600.50,607.44,9.34,0000 0000 0000 0000 000000
2016-10-21 02:40:58,0.00,0.09,0.00,20.15,25.32,28.97,14.86,48.30,1025.14,2040.01,3512.00,3136.99,3554.67,599.85,606.95,9.39,0000 0000 0000 0000 000000
2016-10-21 02:45:59,0.01,0.09,0.00,20.15,25.34,28.98,14.89,48.66,1025.21,2040.01,3511.82,3136.85,3554.10,599.97,606.89,9.44,0000 0000 0000 0000 000000
2016-10-21 02:51:01,0.02,0.09,0.00,20.15,25.35,28.98,14.95,48.71,1025.15,2040.00,3511.18,3136.31,3554.00,600.13,607.04,9.49,0000 0000 0000 0000 000000
2016-10-21 02:56:02,0.00,0.09,0.00,20.18,25.35,29.04,14.88,48.46,1024.99,2040.00,3510.99,3136.01,3553.98,600.07,606.81,9.54,0000 0000 0000 0000 000000
2016-10-21 03:01:03,0.00,0.09,0.00,20.15,25.36,29.03,14.82,48.28,1024.93,2040.00,3510.79,3136.00,3553.83,599.14,605.86,9.59,0000 0000 0000 0000 000000
2016-10-21 03:06:04,0.02,0.09,0.00,20.15,25.37,29.02,14.82,48.29,1024.92,2040.00,3510.07,3135.92,3553.09,599.63,606.48,9.64,0000 0000 0000 0000 000000
2016-10-21 03:11:05,0.01,0.09,0.00,20.16,25.37,29.03,14.93,48.56,1024.92,2040.00,3509.99,3135.50,3553.00,600.10,606.74,9.69,0000 0000 0000 0000 000000
2016-10-21 03:16:06,0.00,0.10,0.00,20.14,25.37,29.07,14.89,48.23,1024.92,2040.00,3509.88,3135.07,3552.99,600.32,607.07,9.74,0000 0000 0000 0000 000000
2016-10-21 03:21:07,0.01,0.10,0.00,20.16,25.39,29.03,14.98,48.83,1024.92,2040.00,3509.28,3135.00,3552.88,599.98,606.59,9.79,0000 0000 0000 0000 000000
2016-10-21 03:26:09,0.01,0.10,0.00,20.16,25.40,29.06,14.92,48.43,1024.92,2040.00,3509.01,3135.00,3552.19,599.93,606.58,9.84,0000 0000 0000 0000 000000
2016-10-21 03:31:10,0.00,0.10,0.00,20.17,25.40,29.06,14.91,48.61,1024.92,2040.00,3508.98,3135.00,3552.00,600.03,606.72,9.89,0000 0000 0000 0000 000000
2016-10-21 03:36:11,0.00,0.10,0.00,20.16,25.40,29.06,14.88,48.27,1024.92,2040.00,3508.80,3134.97,3552.00,599.54,606.22,9.94,0000 0000 0000 0000 000000
2016-10-21 03:41:12,0.02,0.10,0.00,20.18,25.42,29.09,14.91,48.72,1024.92,2040.00,3508.13,3134.74,3551.95,599.74,606.47,9.99,0000 0000 0000 0000 000000
2016-10-21 03:46:14,0.02,0.10,0.00,20.19,25.42,29.08,14.98,48.57,1024.92,2039.99,3508.00,3134.11,3551.59,599.83,606.42,10.04,0000 0000 0000 0000 000000
2016-10-21 03:51:15,0.00,0.10,0.00,20.17,25.42,29.10,14.91,48.28,1024.91,2039.99,3507.99,3134.02,3551.14,600.29,607.08,10.09,0000 0000 0000 0000 000000
2016-10-21 03:56:17,0.01,0.10,0.00,20.14,25.43,29.10,14.82,48.24,1024.92,2039.99,3507.43,3134.01,3551.01,599.79,606.59,10.14,0000 0000 0000 0000 000000
2016-10-21 04:01:18,0.00,0.10,0.00,20.15,25.44,29.10,14.85,48.23,1024.92,2039.99,3507.04,3134.00,3550.98,599.67,606.29,10.19,0000 0000 0000 0000 000000
2016-10-21 04:06:19,0.00,0.10,0.00,20.15,25.45,29.10,14.90,48.32,1024.92,2039.99,3507.00,3133.98,3550.92,600.44,607.17,10.24,0000 0000 0000 0000 000000
2016-10-21 04:11:21,0.01,0.10,0.00,20.13,25.45,29.11,14.88,48.37,1024.92,2039.99,3506.97,3133.80,3550.43,600.10,606.87,10.29,0000 0000 0000 0000 000000
2016-10-21 04:16:22,0.02,0.10,0.00,20.16,25.45,29.10,14.88,48.10,1024.92,2039.99,3506.74,3133.33,3550.04,599.75,606.52,10.34,0000 0000 0000 0000 000000
2016-10-21 04:21:23,0.01,0.10,0.00,20.16,25.45,29.09,14.92,48.33,1024.92,2039.97,3506.22,3133.10,3550.01,600.11,606.95,10.39,0000 0000 0000 0000 000000
2016-10-21 04:26:24,0.00,0.10,0.00,20.17,25.46,29.09,14.87,48.18,1024.92,2039.98,3506.02,3133.01,3550.00,600.02,606.66,10.44,0000 0000 0000 0000 000000
2016-10-21 04:31:25,0.00,0.10,0.00,20.20,25.47,29.12,14.79,48.07,1024.91,2039.98,3506.00,3133.00,3549.96,600.07,606.58,10.49,0000 0000 0000 0000 000000
2016-10-21 04:36:27,0.00,0.10,0.00,20.17,25.47,29.12,14.74,47.83,1024.90,2039.98,3505.98,3133.00,3549.90,599.51,606.02,10.54,0000 0000 0000 0000 000000
2016-10-21 04:41:28,0.01,0.10,0.00,20.16,25.47,29.10,14.80,48.26,1024.88,2039.98,3505.89,3132.98,3549.52,600.07,606.75,10.59,0000 0000 0000 0000 000000
2016-10-21 04:46:29,0.01,0.10,0.00,20.17,25.47,29.10,15.00,48.68,1024.88,2039.97,3505.37,3132.89,3549.11,600.36,607.03,10.64,0000 0000 0000 0000 000000
2016-10-21 04:51:31,0.01,0.11,0.00,20.16,25.47,29.10,14.98,48.56,1024.80,2039.96,3505.03,3132.44,3549.00,600.33,607.00,10.69,0000 0000 0000 0000 000000
2016-10-21 04:56:32,0.00,0.11,0.00,20.15,25.47,29.11,14.85,48.44,1024.69,2039.95,3505.00,3132.08,3549.00,599.79,606.50,10.74,0000 0000 0000 0000 000000
2016-10-21 05:01:33,0.00,0.11,0.00,20.16,25.47,29.10,14.90,48.46,1024.81,2039.97,3504.99,3132.05,3548.98,599.94,606.54,10.79,0000 0000 0000 0000 000000
2016-10-21 05:06:35,0.00,0.11,0.00,20.13,25.47,29.09,14.94,48.61,1024.76,2039.97,3504.93,3132.01,3548.97,600.29,606.97,10.84,0000 0000 0000 0000 000000
2016-10-21 05:11:36,0.01,0.11,0.00,20.17,25.48,29.11,14.95,48.52,1024.53,2039.97,3504.33,3132.00,3548.83,600.02,606.55,10.89,0000 0000 0000 0000 000000
2016-10-21 05:16:37,0.01,0.11,0.00,20.15,25.48,29.07,14.94,48.63,1024.48,2039.97,3504.02,3132.00,3548.26,600.22,606.52,10.94,0000 0000 0000 0000 000000
2016-10-21 05:21:38,0.00,0.11,0.00,20.16,25.49,29.13,14.79,48.17,1024.45,2039.99,3504.00,3131.94,3548.02,599.94,606.13,10.99,0000 0000 0000 0000 000000
2016-10-21 05:26:39,0.00,0.11,0.00,20.18,25.49,29.11,14.91,48.30,1024.44,2039.98,3503.99,3131.77,3548.00,599.79,606.18,11.04,0000 0000 0000 0000 000000
2016-10-21 05:31:41,0.01,0.11,0.00,20.15,25.49,29.10,14.92,48.47,1024.43,2039.97,3503.97,3131.43,3547.99,600.34,606.80,11.09,0000 0000 0000 0000 000000
2016-10-21 05:36:42,0.01,0.11,0.00,20.16,25.49,29.11,14.97,48.81,1024.43,2039.98,3503.88,3131.14,3547.98,600.09,606.54,11.14,0000 0000 0000 0000 000000
2016-10-21 05:41:43,0.01,0.11,0.00,20.12,25.49,29.09,14.73,48.51,1024.43,2039.97,3503.31,3131.02,3547.92,599.75,606.25,11.19,0000 0000 0000 0000 000000
2016-10-21 05:46:45,0.01,0.11,0.00,20.15,25.48,29.12,14.82,48.64,1024.38,2039.97,3503.03,3131.01,3547.54,600.68,607.10,11.24,0000 0000 0000 0000 000000
2016-10-21 05:51:46,0.00,0.11,0.00,20.13,25.48,29.09,14.91,48.59,1024.31,2039.98,3503.00,3131.00,3547.06,600.04,606.53,11.29,0000 0000 0000 0000 000000
2016-10-21 05:56:47,0.00,0.11,0.00,20.12,25.48,29.09,14.82,48.17,1024.23,2039.98,3503.00,3131.00,3547.02,599.83,606.16,11.34,0000 0000 0000 0000 000000
2016-10-21 06:01:49,0.00,0.11,0.00,20.11,25.47,29.11,14.93,48.36,1024.27,2039.98,3502.99,3130.98,3547.00,600.18,606.75,11.39,0000 0000 0000 0000 000000
2016-10-21 06:06:50,-0.00,0.11,0.00,20.08,25.47,29.10,14.95,48.38,1024.22,2039.97,3502.96,3130.97,3546.99,600.51,607.00,11.45,0000 0000 0000 0000 000000
2016-10-21 06:11:51,0.01,0.11,0.00,20.09,25.47,29.07,14.89,48.58,1024.24,2039.97,3502.74,3130.75,3546.95,600.18,606.65,11.50,0000 0000 0000 0000 000000
2016-10-21 06:16:52,0.01,0.11,0.00,20.06,25.47,29.05,14.91,48.36,1024.27,2039.97,3502.32,3130.58,3546.77,599.80,606.28,11.55,0000 0000 0000 0000 000000
2016-10-21 06:21:53,-0.00,0.11,0.00,20.05,25.47,29.04,14.85,48.24,1024.33,2039.96,3502.31,3130.60,3546.78,599.92,606.34,11.60,0000 0000 0000 0000 000000
2016-10-21 06:26:55,0.02,0.11,0.00,20.02,25.46,28.96,14.90,48.49,1024.34,2039.97,3502.12,3130.40,3546.53,600.14,606.84,11.65,0000 0000 0000 0000 000000
2016-10-21 06:31:56,0.01,0.11,0.00,20.03,25.45,29.02,14.78,48.60,1024.25,2039.96,3502.01,3130.07,3546.11,599.82,606.43,11.70,0000 0000 0000 0000 000000
2016-10-21 06:36:57,-0.00,0.11,0.00,20.02,25.45,29.02,14.79,48.73,1024.11,2039.97,3502.00,3130.05,3546.03,599.79,606.34,11.75,0000 0000 0000 0000 000000
2016-10-21 06:41:58,0.00,0.11,0.00,20.06,25.43,29.03,14.88,48.61,1024.03,2039.96,3502.00,3130.01,3546.01,599.97,606.50,11.80,0000 0000 0000 0000 000000
2016-10-21 06:46:59,-0.00,0.11,0.00,20.03,25.42,29.04,14.85,48.67,1023.98,2039.96,3501.97,3130.00,3546.00,600.08,606.59,11.85,0000 0000 0000 0000 000000
2016-10-21 06:52:01,-0.00,0.11,0.00,19.96,25.42,29.03,14.79,48.32,1023.98,2039.99,3501.97,3130.00,3546.00,599.37,605.96,11.90,0000 0000 0000 0000 000000
2016-10-21 06:57:02,0.00,0.11,0.00,19.93,25.42,29.03,14.91,48.73,1023.97,2039.98,3501.85,3130.00,3545.99,600.20,606.82,11.95,0000 0000 0000 0000 000000
2016-10-21 07:02:03,0.00,0.11,0.00,19.86,25.40,29.01,14.87,48.06,1023.98,2039.99,3501.83,3130.00,3545.99,599.85,606.43,12.00,0000 0000 0000 0000 000000
2016-10-21 07:07:04,0.01,0.11,0.00,19.83,25.40,29.00,14.96,48.23,1024.05,2039.97,3501.51,3130.00,3545.98,599.84,606.72,12.05,0000 0000 0000 0000 000000
2016-10-21 07:12:05,-0.00,0.11,0.00,19.86,25.40,28.99,14.85,48.37,1024.27,2039.99,3501.19,3129.99,3545.98,600.07,607.09,12.10,0000 0000 0000 0000 000000
2016-10-21 07:17:06,0.00,0.11,0.00,19.84,25.37,29.00,14.91,48.19,1024.38,2039.99,3501.14,3129.99,3545.97,600.02,607.17,12.15,0000 0000 0000 0000 000000
2016-10-21 07:22:07,0.00,0.11,0.00,19.83,25.37,28.98,14.90,48.08,1024.43,2039.99,3501.16,3129.99,3545.97,599.97,607.14,12.20,0000 0000 0000 0000 000000
2016-10-21 07:27:09,0.00,0.11,0.00,19.82,25.36,28.96,14.85,48.13,1024.43,2039.99,3501.09,3129.99,3545.98,599.56,606.83,12.25,0000 0000 0000 0000 000000
2016-10-21 07:32:10,0.00,0.11,0.00,19.81,25.35,28.95,14.93,48.54,1024.43,2039.99,3501.01,3129.99,3545.93,599.86,607.05,12.30,0000 0000 0000 0000 000000
2016-10-21 07:37:11,0.00,0.11,0.00,19.80,25.34,28.91,14.92,48.13,1024.43,2039.99,3501.02,3129.99,3545.97,600.23,607.34,12.35,0000 0000 0000 0000 000000
2016-10-21 07:42:12,0.00,0.11,0.00,19.79,25.32,28.91,14.92,48.20,1024.43,2039.99,3501.01,3129.99,3545.93,599.78,607.08,12.40,0000 0000 0000 0000 000000
2016-10-21 07:47:13,0.00,0.11,0.00,19.79,25.32,28.88,14.89,48.24,1024.43,2039.99,3501.00,3129.99,3545.88,600.19,607.55,12.45,0000 0000 0000 0000 000000
2016-10-21 07:52:14,0.00,0.11,0.00,19.76,25.30,28.89,14.93,48.26,1024.43,2040.00,3501.00,3129.99,3545.79,600.29,607.55,12.50,0000 0000 0000 0000 000000
2016-10-21 07:57:16,0.01,0.11,0.00,19.78,25.30,28.87,14.94,48.60,1024.43,2040.01,3500.99,3129.99,3545.48,600.25,607.43,12.55,0000 0000 0000 0000 000000
2016-10-21 08:02:17,0.00,0.11,0.00,19.76,25.28,28.82,14.93,48.77,1024.43,2040.01,3500.96,3129.98,3545.29,600.08,607.34,12.60,0000 0000 0000 0000 000000
2016-10-21 08:07:18,0.00,0.11,0.00,19.77,25.27,28.86,14.90,48.67,1024.42,2040.01,3500.90,3129.98,3545.09,599.80,607.09,12.65,0000 0000 0000 0000 000000
2016-10-21 08:12:19,0.00,0.11,0.00,19.75,25.25,28.82,14.88,48.33,1024.42,2040.02,3500.96,3129.98,3545.09,599.92,607.19,12.70,0000 0000 0000 0000 000000
2016-10-21 08:17:21,-0.00,0.11,0.00,19.73,25.25,28.75,14.89,48.38,1024.43,2040.02,3500.90,3129.98,3545.05,600.26,607.67,12.75,0000 0000 0000 0000 000000
2016-10-21 08:22:22,0.01,0.11,0.00,19.71,25.23,28.74,14.96,48.55,1024.43,2040.01,3500.54,3129.93,3545.03,600.19,607.43,12.80,0000 0000 0000 0000 000000
2016-10-21 08:27:23,0.00,0.12,0.00,19.70,25.22,28.74,14.88,48.66,1024.43,2040.04,3500.26,3129.95,3545.01,599.81,607.16,12.85,0000 0000 0000 0000 000000
2016-10-21 08:32:25,0.00,0.12,0.00,19.73,25.21,28.73,14.91,48.30,1024.43,2040.06,3500.31,3129.93,3545.01,600.03,607.33,12.90,0000 0000 0000 0000 000000
2016-10-21 08:37:26,0.00,0.12,0.00,19.74,25.20,28.75,14.86,48.66,1024.40,2040.09,3500.20,3129.95,3545.00,599.51,606.81,12.95,0000 0000 0000 0000 000000
2016-10-21 08:42:27,0.02,0.12,0.00,19.71,25.20,28.75,14.93,48.62,1024.38,2040.19,3500.04,3129.95,3545.00,599.90,607.14,13.00,0000 0000 0000 0000 000000
2016-10-21 08:47:28,0.02,0.12,0.00,19.74,25.18,28.78,14.94,48.74,1024.27,2040.33,3500.01,3129.48,3544.99,600.38,607.57,13.05,0000 0000 0000 0000 000000
2016-10-21 08:52:29,0.01,0.12,0.00,19.70,25.17,28.70,14.89,48.67,1024.05,2040.43,3499.78,3129.06,3544.95,600.24,607.40,13.10,0000 0000 0000 0000 000000
2016-10-21 08:57:31,0.04,0.12,0.00,19.71,25.17,28.73,14.95,48.75,1023.98,2040.64,3499.12,3129.01,3544.77,600.08,607.18,13.15,0000 0000 0000 0000 000000
2016-10-21 09:02:32,0.01,0.12,0.00,19.72,25.15,28.68,14.93,48.85,1023.97,2040.78,3499.03,3129.00,3544.43,600.15,607.22,13.20,0000 0000 0000 0000 000000
2016-10-21 09:07:33,0.01,0.12,0.00,19.71,25.15,28.68,14.79,47.92,1023.97,2040.83,3499.03,3129.00,3544.27,598.96,605.94,13.25,0000 0000 0000 0000 000000
2016-10-21 09:12:35,0.01,0.12,0.00,19.73,25.15,28.70,14.95,48.23,1023.96,2040.93,3499.03,3129.02,3544.38,600.60,607.76,13.30,0000 0000 0000 0000 000000
2016-10-21 09:17:36,0.01,0.12,0.00,19.72,25.14,28.73,14.80,47.51,1023.95,2040.96,3499.03,3129.01,3544.19,599.61,606.52,13.35,0000 0000 0000 0000 000000
2016-10-21 09:22:37,-0.00,0.12,0.00,19.73,25.12,28.71,14.82,47.77,1023.96,2040.91,3499.01,3129.00,3544.05,599.74,606.86,13.40,0000 0000 0000 0000 000000
2016-10-21 09:27:39,0.00,0.12,0.00,19.74,25.12,28.73,14.92,48.44,1023.96,2040.92,3499.00,3129.00,3544.01,600.12,607.21,13.45,0000 0000 0000 0000 000000
2016-10-21 09:32:40,0.00,0.12,0.00,19.70,25.12,28.71,14.84,48.16,1023.94,2040.95,3499.00,3129.00,3544.02,600.12,607.20,13.50,0000 0000 0000 0000 000000
2016-10-21 09:37:41,0.00,0.12,0.00,19.67,25.10,28.71,14.97,48.67,1023.94,2040.95,3499.00,3129.00,3544.00,599.93,607.12,13.55,0000 0000 0000 0000 000000
2016-10-21 09:42:43,0.00,0.12,0.00,19.72,25.10,28.70,14.93,48.52,1023.94,2040.96,3499.00,3129.00,3544.00,600.10,607.02,13.60,0000 0000 0000 0000 000000
2016-10-21 09:47:44,0.00,0.12,0.00,19.69,25.10,28.71,14.88,48.45,1023.94,2040.96,3498.96,3128.99,3544.00,600.02,606.96,13.65,0000 0000 0000 0000 000000
2016-10-21 09:52:45,0.00,0.12,0.00,19.71,25.09,28.71,14.97,48.60,1023.94,2040.95,3498.73,3128.97,3543.99,600.55,607.53,13.70,0000 0000 0000 0000 000000
2016-10-21 09:57:47,0.00,0.12,0.00,19.70,25.08,28.70,14.85,48.30,1023.94,2040.97,3498.68,3128.99,3543.99,599.78,606.88,13.75,0000 0000 0000 0000 000000
2016-10-21 10:02:47,0.00,0.12,0.00,19.68,25.07,28.70,14.96,48.60,1023.94,2040.96,3498.14,3128.98,3543.99,600.08,607.08,13.80,0000 0000 0000 0000 000000
2016-10-21 10:07:49,0.00,0.12,0.00,19.67,25.07,28.67,14.94,48.52,1023.94,2040.98,3498.06,3128.97,3543.98,599.86,607.02,13.85,0000 0000 0000 0000 000000
2016-10-21 10:12:50,0.00,0.12,0.00,19.67,25.07,28.68,14.85,48.43,1023.94,2040.99,3498.01,3128.98,3543.98,600.28,607.43,13.91,0000 0000 0000 0000 000000
2016-10-21 10:17:51,0.00,0.12,0.00,19.72,25.05,28.66,14.88,48.49,1023.93,2040.99,3498.00,3128.95,3543.98,600.23,607.15,13.96,0000 0000 0000 0000 000000
2016-10-21 10:22:52,0.00,0.12,0.00,19.72,25.05,28.70,14.94,48.77,1023.91,2040.99,3497.99,3128.91,3543.98,600.24,607.24,14.01,0000 0000 0000 0000 000000
2016-10-21 10:27:54,0.00,0.12,0.00,19.67,25.05,28.71,14.91,48.45,1023.89,2040.99,3497.99,3128.92,3543.96,599.56,606.70,14.06,0000 0000 0000 0000 000000
2016-10-21 10:32:55,0.00,0.12,0.00,19.64,25.04,28.68,14.85,48.56,1023.76,2040.99,3497.96,3128.73,3543.92,599.88,607.00,14.11,0000 0000 0000 0000 000000
2016-10-21 10:37:56,0.01,0.12,0.00,19.58,25.03,28.66,15.02,48.63,1023.55,2040.99,3497.88,3128.46,3543.76,600.38,607.47,14.16,0000 0000 0000 0000 000000
2016-10-21 10:42:57,0.00,0.12,0.00,19.59,25.02,28.65,14.86,48.48,1023.49,2040.99,3497.70,3128.41,3543.61,600.09,607.05,14.21,0000 0000 0000 0000 000000
2016-10-21 10:47:59,0.02,0.13,0.00,19.55,25.02,28.63,14.90,48.44,1023.47,2040.99,3497.24,3128.20,3543.29,599.82,606.94,14.26,0000 0000 0000 0000 000000
2016-10-21 10:53:00,0.00,0.13,0.00,19.53,25.02,28.61,14.84,48.48,1023.45,2041.00,3497.06,3128.05,3543.08,599.70,606.82,14.31,0000 0000 0000 0000 000000
2016-10-21 10:58:01,0.00,0.13,0.00,19.57,25.00,28.55,14.94,48.54,1023.45,2041.01,3497.02,3128.06,3543.08,600.39,607.42,14.36,0000 0000 0000 0000 000000
2016-10-21 11:03:02,0.00,0.13,0.00,19.57,25.00,28.54,14.98,48.75,1023.45,2041.02,3497.01,3128.04,3543.05,600.58,607.68,14.41,0000 0000 0000 0000 000000
2016-10-21 11:08:03,-0.00,0.13,0.00,19.56,24.99,28.51,14.83,48.15,1023.36,2041.03,3497.00,3128.04,3543.02,599.97,606.98,14.46,0000 0000 0000 0000 000000
2016-10-21 11:13:05,0.00,0.13,0.00,19.54,24.97,28.48,14.95,48.66,1023.08,2041.02,3497.00,3128.02,3543.00,600.47,607.36,14.51,0000 0000 0000 0000 000000
2016-10-21 11:18:06,0.00,0.13,0.00,19.56,24.97,28.47,14.79,48.39,1023.09,2041.05,3496.99,3128.01,3543.01,599.68,606.53,14.56,0000 0000 0000 0000 000000
2016-10-21 11:23:07,-0.00,0.13,0.00,19.54,24.97,28.51,14.92,48.62,1023.03,2041.05,3496.96,3128.00,3543.00,599.98,606.83,14.61,0000 0000 0000 0000 000000
2016-10-21 11:28:08,0.00,0.13,0.00,19.53,24.96,28.48,14.94,48.49,1022.99,2041.07,3496.94,3128.01,3543.00,600.13,606.85,14.66,0000 0000 0000 0000 000000
2016-10-21 11:33:10,0.02,0.13,0.00,19.51,24.95,28.53,14.90,48.55,1022.98,2041.19,3496.80,3128.00,3543.00,600.17,607.09,14.71,0000 0000 0000 0000 000000
2016-10-21 11:38:11,0.02,0.13,0.00,19.50,24.95,28.47,14.86,48.52,1022.98,2041.26,3496.54,3128.00,3543.00,599.63,606.68,14.76,0000 0000 0000 0000 000000
2016-10-21 11:43:12,0.03,0.13,0.00,19.50,24.93,28.46,14.97,48.67,1022.98,2041.66,3496.27,3128.00,3543.00,600.26,607.23,14.81,0000 0000 0000 0000 000000
2016-10-21 11:48:13,0.01,0.13,0.00,19.49,24.92,28.47,14.90,48.62,1022.96,2041.84,3496.04,3128.00,3543.00,599.99,607.00,14.86,0000 0000 0000 0000 000000
2016-10-21 11:53:15,0.00,0.13,0.00,19.47,24.92,28.45,14.88,48.63,1022.96,2041.94,3496.00,3128.00,3543.00,599.73,606.71,14.91,0000 0000 0000 0000 000000
2016-10-21 11:58:16,0.00,0.13,0.00,19.47,24.92,28.42,14.88,48.61,1022.95,2041.97,3496.00,3128.00,3542.99,600.06,607.05,14.96,0000 0000 0000 0000 000000
2016-10-21 12:03:17,0.00,0.13,0.00,19.43,24.90,28.43,14.92,48.58,1022.92,2041.99,3495.99,3128.00,3542.98,600.27,607.23,15.01,0000 0000 0000 0000 000000
2016-10-21 12:08:19,0.00,0.13,0.00,19.45,24.90,28.45,14.86,48.63,1022.70,2041.98,3495.91,3127.98,3542.94,600.49,607.22,15.06,0000 0000 0000 0000 000000
2016-10-21 12:13:20,0.02,0.13,0.00,19.43,24.90,28.43,14.92,48.55,1022.50,2041.98,3495.29,3127.93,3542.66,600.08,606.82,15.11,0000 0000 0000 0000 000000
2016-10-21 12:18:21,0.01,0.13,0.00,19.42,24.89,28.40,14.88,48.47,1022.48,2041.98,3495.02,3127.71,3542.15,599.72,606.54,15.16,0000 0000 0000 0000 000000
2016-10-21 12:23:23,0.00,0.13,0.00,19.39,24.87,28.38,14.92,48.70,1022.48,2041.99,3495.00,3127.60,3542.15,600.10,607.00,15.21,0000 0000 0000 0000 000000
2016-10-21 12:28:24,0.01,0.13,0.00,19.41,24.87,28.39,14.80,48.64,1022.41,2041.99,3494.90,3127.13,3542.01,599.80,606.74,15.26,0000 0000 0000 0000 000000
2016-10-21 12:33:25,0.01,0.14,0.00,19.37,24.87,28.38,14.87,48.65,1022.04,2041.99,3494.08,3127.01,3541.97,599.80,606.38,15.31,0000 0000 0000 0000 000000
2016-10-21 12:38:26,0.01,0.14,0.00,19.38,24.87,28.38,14.85,48.25,1021.99,2041.99,3493.51,3126.96,3541.57,599.96,606.60,15.36,0000 0000 0000 0000 000000
2016-10-21 12:43:27,-0.00,0.14,0.00,19.35,24.85,28.35,14.83,48.12,1021.99,2041.99,3493.37,3126.98,3541.53,599.83,606.74,15.41,0000 0000 0000 0000 000000
2016-10-21 12:48:29,0.01,0.14,0.00,19.35,24.85,28.41,14.87,48.27,1021.96,2042.00,3493.06,3126.94,3541.21,599.90,606.40,15.46,0000 0000 0000 0000 000000
2016-10-21 12:53:30,0.00,0.14,0.00,19.30,24.85,28.42,14.80,48.06,1021.96,2042.04,3493.03,3126.92,3541.16,599.67,606.53,15.51,0000 0000 0000 0000 000000